| time (UTC) | temp F | wind direction | speed knots | gust knots | rain 1hr in | rain 24hr in | rain mn in | humidity % | barometer mb |
| 20260510061637 | 55 | 208 | 1.7 | 6.1 | 0.00 | 0.00 | 0.00 | 90 | 1010.8 |
| 20260510061135 | 55 | 187 | 1.7 | 2.6 | 0.00 | 0.00 | 0.00 | 90 | 1011.1 |
| 20260510060631 | 55 | 204 | 1.7 | 2.6 | 0.00 | 0.00 | 0.00 | 89 | 1011.1 |
| 20260510060127 | 55 | 209 | 1.7 | 4.3 | 0.00 | 0.00 | 0.00 | 90 | 1011.3 |
| 20260510055624 | 55 | 170 | 1.7 | 3.5 | 0.00 | 0.00 | 0.00 | 89 | 1011.1 |
| 20260510055122 | 55 | 189 | 1.7 | 3.5 | 0.00 | 0.00 | 0.00 | 90 | 1010.9 |
| 20260510054617 | 55 | 229 | 1.7 | 3.5 | 0.00 | 0.00 | 0.00 | 89 | 1010.8 |
| 20260510054113 | 55 | 139 | 1.7 | 2.6 | 0.00 | 0.00 | 0.00 | 88 | 1011.2 |
| 20260510053612 | 56 | 194 | 2.6 | 4.3 | 0.00 | 0.00 | 0.00 | 87 | 1011.1 |
| 20260510053109 | 56 | 219 | 3.5 | 5.2 | 0.00 | 0.00 | 0.00 | 88 | 1011.0 |
| 20260510052605 | 55 | 186 | 2.6 | 4.3 | 0.00 | 0.00 | 0.00 | 88 | 1011.3 |
| 20260510052102 | 55 | 180 | 0.9 | 1.7 | 0.00 | 0.00 | 0.00 | 88 | 1011.2 |
| 20260510051557 | 56 | 182 | 2.6 | 4.3 | 0.00 | 0.00 | 0.00 | 88 | 1011.2 |
| 20260510051054 | 56 | 213 | 2.6 | 4.3 | 0.00 | 0.00 | 0.00 | 87 | 1011.1 |
| 20260510050551 | 56 | 177 | 2.6 | 8.7 | 0.00 | 0.00 | 0.00 | 87 | 1011.0 |
| 20260510050049 | 55 | 190 | 2.6 | 6.1 | 0.00 | 0.00 | 0.00 | 88 | 1011.1 |
| 20260510045540 | 55 | 246 | 0.0 | 2.6 | 0.00 | 0.00 | 0.00 | 88 | 1011.3 |
| 20260510045036 | 55 | 290 | 0.0 | 3.5 | 0.00 | 0.00 | 0.00 | 88 | 1010.9 |
| 20260510044533 | 56 | 201 | 3.5 | 3.5 | 0.00 | 0.00 | 0.00 | 87 | 1011.3 |
| 20260510044031 | 56 | 203 | 1.7 | 3.5 | 0.00 | 0.00 | 0.00 | 86 | 1011.3 |
| 20260510043526 | 56 | 239 | 1.7 | 4.3 | 0.00 | 0.00 | 0.00 | 86 | 1011.1 |
| 20260510043021 | 56 | 240 | 3.5 | 4.3 | 0.00 | 0.00 | 0.00 | 85 | 1011.0 |
| 20260510042516 | 56 | 177 | 1.7 | 4.3 | 0.00 | 0.00 | 0.00 | 85 | 1010.9 |
| 20260510042016 | 56 | 215 | 0.0 | 4.3 | 0.00 | 0.00 | 0.00 | 86 | 1011.1 |
| 20260510041514 | 57 | 275 | 3.5 | 4.3 | 0.00 | 0.00 | 0.00 | 84 | 1011.1 |
| 20260510041011 | 57 | 190 | 2.6 | 4.3 | 0.00 | 0.00 | 0.00 | 84 | 1011.2 |
| 20260510040508 | 57 | 196 | 2.6 | 4.3 | 0.00 | 0.00 | 0.00 | 84 | 1011.0 |
| 20260510040003 | 56 | 192 | 0.9 | 3.5 | 0.00 | 0.24 | 0.24 | 85 | 1010.8 |
| 20260510035500 | 57 | 191 | 1.7 | 4.3 | 0.00 | 0.24 | 0.24 | 84 | 1010.8 |
| 20260510034959 | 57 | 185 | 2.6 | 5.2 | 0.00 | 0.24 | 0.24 | 84 | 1010.9 |
| 20260510034459 | 56 | 199 | 3.5 | 4.3 | 0.00 | 0.24 | 0.24 | 85 | 1010.8 |
| 20260510033954 | 57 | 183 | 2.6 | 4.3 | 0.00 | 0.24 | 0.24 | 83 | 1010.9 |
| 20260510033450 | 57 | 149 | 2.6 | 4.3 | 0.00 | 0.24 | 0.24 | 83 | 1010.8 |
| 20260510032948 | 57 | 162 | 0.9 | 4.3 | 0.00 | 0.24 | 0.24 | 83 | 1010.8 |
| 20260510032445 | 57 | 251 | 0.0 | 3.5 | 0.00 | 0.24 | 0.24 | 82 | 1010.7 |
| 20260510031944 | 57 | 197 | 0.0 | 5.2 | 0.00 | 0.24 | 0.24 | 82 | 1010.6 |
| 20260510031440 | 57 | 177 | 1.7 | 4.3 | 0.00 | 0.24 | 0.24 | 81 | 1010.6 |
| 20260510030936 | 58 | 237 | 1.7 | 4.3 | 0.00 | 0.24 | 0.24 | 81 | 1010.8 |
| 20260510030432 | 58 | 225 | 0.0 | 5.2 | 0.00 | 0.24 | 0.24 | 80 | 1010.7 |
| 20260510025930 | 57 | 120 | 0.9 | 4.3 | 0.00 | 0.24 | 0.24 | 82 | 1010.5 |
| 20260510025427 | 57 | 211 | 2.6 | 4.3 | 0.00 | 0.24 | 0.24 | 81 | 1010.3 |
| 20260510024924 | 57 | 166 | 1.7 | 6.1 | 0.00 | 0.24 | 0.24 | 81 | 1010.3 |
| 20260510024420 | 58 | 180 | 0.0 | 4.3 | 0.00 | 0.24 | 0.24 | 80 | 1010.6 |
| 20260510023916 | 58 | 197 | 4.3 | 6.1 | 0.00 | 0.24 | 0.24 | 79 | 1010.2 |
| 20260510023413 | 58 | 162 | 0.9 | 5.2 | 0.00 | 0.24 | 0.24 | 80 | 1010.2 |
| 20260510022910 | 57 | 163 | 1.7 | 4.3 | 0.00 | 0.24 | 0.24 | 80 | 1010.2 |
| 20260510022409 | 57 | 189 | 2.6 | 5.2 | 0.00 | 0.24 | 0.24 | 81 | 1010.1 |
| 20260510021908 | 57 | 170 | 2.6 | 4.3 | 0.00 | 0.24 | 0.24 | 80 | 1010.1 |
| 20260510021407 | 57 | 219 | 2.6 | 5.2 | 0.00 | 0.24 | 0.24 | 80 | 1010.3 |
| 20260510020903 | 57 | 246 | 0.9 | 2.6 | 0.00 | 0.24 | 0.24 | 82 | 1010.0 |
| 20260510020358 | 58 | 138 | 2.6 | 6.1 | 0.00 | 0.24 | 0.24 | 80 | 1009.8 |
| 20260510015854 | 57 | 192 | 0.0 | 4.3 | 0.00 | 0.24 | 0.24 | 80 | 1009.9 |
| 20260510015349 | 57 | 182 | 2.6 | 3.5 | 0.00 | 0.24 | 0.24 | 80 | 1010.0 |
| 20260510014845 | 58 | 139 | 1.7 | 4.3 | 0.00 | 0.24 | 0.24 | 79 | 1010.0 |
| 20260510014342 | 58 | 200 | 0.0 | 3.5 | 0.00 | 0.24 | 0.24 | 80 | 1010.1 |
| 20260510013838 | 58 | 180 | 1.7 | 5.2 | 0.00 | 0.24 | 0.24 | 78 | 1009.9 |
| 20260510013334 | 58 | 168 | 0.9 | 2.6 | 0.00 | 0.24 | 0.24 | 80 | 1009.7 |
| 20260510012829 | 58 | 203 | 0.9 | 3.5 | 0.00 | 0.24 | 0.24 | 78 | 1009.6 |
| 20260510012329 | 58 | 213 | 1.7 | 2.6 | 0.00 | 0.24 | 0.24 | 78 | 1009.4 |
| 20260510011824 | 59 | 192 | 2.6 | 3.5 | 0.00 | 0.24 | 0.24 | 77 | 1009.5 |
| 20260510011320 | 58 | 176 | 1.7 | 3.5 | 0.00 | 0.24 | 0.24 | 79 | 1009.5 |
| 20260510010816 | 58 | 198 | 0.9 | 4.3 | 0.00 | 0.24 | 0.24 | 79 | 1009.5 |
| 20260510010314 | 59 | 193 | 2.6 | 4.3 | 0.00 | 0.24 | 0.24 | 77 | 1009.4 |
| 20260510005811 | 59 | 189 | 3.5 | 5.2 | 0.00 | 0.24 | 0.24 | 76 | 1009.2 |
| 20260510005307 | 59 | 195 | 2.6 | 4.3 | 0.00 | 0.24 | 0.24 | 76 | 1009.2 |
| 20260510004805 | 59 | 196 | 0.0 | 2.6 | 0.00 | 0.24 | 0.24 | 77 | 1009.2 |
| 20260510004302 | 59 | 191 | 2.6 | 2.6 | 0.00 | 0.24 | 0.24 | 76 | 1009.3 |
| 20260510003759 | 59 | 190 | 1.7 | 3.5 | 0.00 | 0.24 | 0.24 | 75 | 1009.2 |
| 20260510003256 | 60 | 187 | 1.7 | 3.5 | 0.00 | 0.24 | 0.24 | 75 | 1009.3 |
| 20260510002754 | 60 | 254 | 0.9 | 4.3 | 0.00 | 0.24 | 0.24 | 75 | 1009.1 |
| 20260510002253 | 60 | 285 | 0.0 | 2.6 | 0.00 | 0.24 | 0.24 | 74 | 1009.1 |
| 20260510001749 | 60 | 174 | 0.0 | 2.6 | 0.00 | 0.24 | 0.24 | 73 | 1009.0 |
| 20260510001247 | 61 | 180 | 0.0 | 2.6 | 0.00 | 0.24 | 0.24 | 72 | 1009.0 |
| 20260510000743 | 61 | 197 | 1.7 | 3.5 | 0.00 | 0.24 | 0.24 | 71 | 1008.9 |
| 20260510000241 | 61 | 198 | 2.6 | 3.5 | 0.00 | 0.24 | 0.24 | 72 | 1008.6 |
| 20260509235737 | 61 | 270 | 0.0 | 2.6 | 0.00 | 0.24 | 0.24 | 72 | 1008.7 |
| 20260509235233 | 61 | 237 | 2.6 | 3.5 | 0.00 | 0.24 | 0.24 | 72 | 1008.7 |
| 20260509234729 | 62 | 196 | 1.7 | 7.0 | 0.00 | 0.24 | 0.24 | 69 | 1008.7 |
| 20260509234227 | 62 | 191 | 1.7 | 5.2 | 0.00 | 0.24 | 0.24 | 68 | 1008.5 |
| 20260509233725 | 61 | 259 | 1.7 | 4.3 | 0.00 | 0.24 | 0.24 | 71 | 1008.6 |
| 20260509233222 | 62 | 57 | 1.7 | 2.6 | 0.00 | 0.24 | 0.24 | 70 | 1008.8 |
| 20260509232718 | 62 | 206 | 0.9 | 1.7 | 0.00 | 0.24 | 0.24 | 71 | 1008.7 |
| 20260509232215 | 62 | 261 | 1.7 | 3.5 | 0.00 | 0.24 | 0.24 | 70 | 1008.6 |
| 20260509231712 | 63 | 186 | 0.0 | 3.5 | 0.00 | 0.24 | 0.24 | 68 | 1008.6 |
| 20260509231209 | 63 | 254 | 1.7 | 3.5 | 0.00 | 0.24 | 0.24 | 67 | 1008.6 |
| 20260509230706 | 63 | 144 | 2.6 | 4.3 | 0.00 | 0.24 | 0.24 | 67 | 1008.7 |
| 20260509230157 | 64 | 200 | 2.6 | 2.6 | 0.00 | 0.24 | 0.24 | 67 | 1008.5 |
| 20260509225653 | 64 | 166 | 0.9 | 3.5 | 0.00 | 0.24 | 0.24 | 67 | 1008.7 |
| 20260509225149 | 64 | 204 | 3.5 | 4.3 | 0.00 | 0.24 | 0.24 | 68 | 1008.8 |
| 20260509224644 | 65 | 237 | 2.6 | 4.3 | 0.00 | 0.24 | 0.24 | 67 | 1008.9 |
| 20260509224141 | 64 | 183 | 0.0 | 3.5 | 0.00 | 0.24 | 0.24 | 67 | 1008.8 |
| 20260509223638 | 65 | 261 | 0.0 | 3.5 | 0.00 | 0.24 | 0.24 | 67 | 1009.0 |
| 20260509223130 | 65 | 220 | 1.7 | 6.1 | 0.00 | 0.24 | 0.24 | 67 | 1008.8 |
| 20260509222627 | 65 | 252 | 0.0 | 3.5 | 0.00 | 0.24 | 0.24 | 68 | 1008.8 |
| 20260509222122 | 65 | 276 | 1.7 | 7.0 | 0.00 | 0.24 | 0.24 | 65 | 1008.9 |
| 20260509221619 | 66 | 214 | 3.5 | 5.2 | 0.00 | 0.24 | 0.24 | 65 | 1009.0 |
| 20260509221114 | 66 | 261 | 3.5 | 4.3 | 0.00 | 0.24 | 0.24 | 63 | 1009.1 |
| 20260509220610 | 66 | 211 | 2.6 | 6.1 | 0.00 | 0.24 | 0.24 | 64 | 1009.0 |
| 20260509220107 | 66 | 191 | 4.3 | 7.0 | 0.00 | 0.24 | 0.24 | 65 | 1008.9 |
| 20260509215602 | 66 | 202 | 0.0 | 6.1 | 0.00 | 0.24 | 0.24 | 62 | 1008.8 |
| 20260509215100 | 65 | 239 | 4.3 | 7.8 | 0.00 | 0.24 | 0.24 | 65 | 1008.9 |
| 20260509214557 | 66 | 244 | 2.6 | 6.1 | 0.00 | 0.24 | 0.24 | 64 | 1009.0 |
| 20260509214053 | 67 | 205 | 2.6 | 2.6 | 0.00 | 0.24 | 0.24 | 66 | 1008.9 |
| 20260509213549 | 66 | 150 | 1.7 | 6.1 | 0.00 | 0.24 | 0.24 | 66 | 1009.1 |
| 20260509213046 | 65 | 125 | 4.3 | 5.2 | 0.00 | 0.24 | 0.24 | 67 | 1009.1 |
| 20260509212544 | 64 | 180 | 0.0 | 4.3 | 0.00 | 0.24 | 0.24 | 68 | 1009.2 |
| 20260509212041 | 66 | 220 | 2.6 | 3.5 | 0.00 | 0.24 | 0.24 | 70 | 1009.0 |
| 20260509211536 | 66 | 222 | 5.2 | 9.6 | 0.00 | 0.24 | 0.24 | 65 | 1009.0 |
| 20260509211033 | 66 | 239 | 5.2 | 6.1 | 0.00 | 0.24 | 0.24 | 64 | 1009.0 |
| 20260509210530 | 66 | 186 | 3.5 | 3.5 | 0.00 | 0.24 | 0.24 | 68 | 1009.1 |
| 20260509210026 | 66 | 252 | 0.0 | 5.2 | 0.00 | 0.24 | 0.24 | 65 | 1009.2 |
| 20260509205520 | 68 | 220 | 2.6 | 3.5 | 0.00 | 0.24 | 0.24 | 63 | 1008.8 |
| 20260509205016 | 65 | 141 | 2.6 | 11.3 | 0.00 | 0.24 | 0.24 | 67 | 1009.2 |
| 20260509204513 | 64 | 216 | 3.5 | 5.2 | 0.00 | 0.24 | 0.24 | 69 | 1009.0 |
| 20260509204009 | 65 | 185 | 1.7 | 7.0 | 0.00 | 0.24 | 0.24 | 67 | 1008.8 |
| 20260509203505 | 68 | 263 | 0.9 | 4.3 | 0.00 | 0.24 | 0.24 | 61 | 1009.1 |
| 20260509203004 | 67 | 197 | 3.5 | 10.4 | 0.00 | 0.24 | 0.24 | 64 | 1009.1 |
| 20260509202458 | 68 | 232 | 4.3 | 7.0 | 0.00 | 0.24 | 0.24 | 62 | 1009.3 |
| 20260509201953 | 67 | 235 | 4.3 | 11.3 | 0.00 | 0.24 | 0.24 | 65 | 1009.3 |
| 20260509201454 | 69 | 215 | 3.5 | 4.3 | 0.00 | 0.24 | 0.24 | 65 | 1009.2 |
| 20260509200951 | 68 | 221 | 1.7 | 5.2 | 0.00 | 0.24 | 0.24 | 66 | 1009.3 |
| 20260509200446 | 69 | 251 | 1.7 | 2.6 | 0.00 | 0.24 | 0.24 | 63 | 1009.4 |
| 20260509195943 | 68 | 202 | 2.6 | 3.5 | 0.00 | 0.24 | 0.24 | 67 | 1009.2 |
| 20260509195438 | 66 | 231 | 3.5 | 11.3 | 0.00 | 0.24 | 0.24 | 64 | 1009.4 |
| 20260509194938 | 66 | 155 | 2.6 | 7.8 | 0.00 | 0.24 | 0.24 | 65 | 1009.4 |
| 20260509194433 | 66 | 197 | 4.3 | 7.0 | 0.00 | 0.24 | 0.24 | 68 | 1009.4 |
| 20260509193931 | 65 | 195 | 3.5 | 5.2 | 0.00 | 0.24 | 0.24 | 65 | 1009.7 |
| 20260509193430 | 66 | 192 | 1.7 | 4.3 | 0.00 | 0.24 | 0.24 | 67 | 1009.5 |
| 20260509192927 | 66 | 194 | 1.7 | 5.2 | 0.00 | 0.24 | 0.24 | 70 | 1009.6 |
| 20260509192423 | 66 | 120 | 4.3 | 7.8 | 0.00 | 0.24 | 0.24 | 66 | 1009.7 |
| 20260509191918 | 66 | 263 | 0.9 | 3.5 | 0.00 | 0.24 | 0.24 | 64 | 1009.7 |
| 20260509191415 | 65 | 180 | 1.7 | 4.3 | 0.00 | 0.24 | 0.24 | 69 | 1009.8 |
| 20260509190911 | 63 | 241 | 1.7 | 4.3 | 0.00 | 0.24 | 0.24 | 82 | 1009.7 |
| 20260509190408 | 62 | 251 | 0.0 | 2.6 | 0.00 | 0.24 | 0.24 | 75 | 1009.7 |
| 20260509185905 | 62 | 248 | 3.5 | 7.0 | 0.00 | 0.24 | 0.24 | 70 | 1009.6 |
| 20260509185402 | 60 | 241 | 1.7 | 5.2 | 0.00 | 0.24 | 0.24 | 76 | 1009.7 |
| 20260509184858 | 60 | 180 | 0.9 | 7.8 | 0.00 | 0.24 | 0.24 | 78 | 1009.7 |
| 20260509184355 | 62 | 230 | 3.5 | 3.5 | 0.00 | 0.24 | 0.24 | 77 | 1009.7 |
| 20260509183853 | 62 | 180 | 0.0 | 4.3 | 0.00 | 0.24 | 0.24 | 78 | 1009.7 |
| 20260509183347 | 61 | 189 | 1.7 | 9.6 | 0.00 | 0.24 | 0.24 | 75 | 1009.7 |
| 20260509182843 | 60 | 225 | 1.7 | 2.6 | 0.00 | 0.24 | 0.24 | 82 | 1009.9 |
| 20260509182341 | 61 | 245 | 1.7 | 1.7 | 0.00 | 0.24 | 0.24 | 84 | 1009.8 |
| 20260509181838 | 60 | 180 | 0.9 | 2.6 | 0.00 | 0.24 | 0.24 | 81 | 1009.8 |
| 20260509181335 | 60 | 188 | 0.0 | 2.6 | 0.00 | 0.24 | 0.24 | 85 | 1009.8 |
| 20260509180832 | 60 | 180 | 0.0 | 2.6 | 0.00 | 0.24 | 0.24 | 85 | 1009.7 |
| 20260509180328 | 59 | 188 | 0.0 | 3.5 | 0.00 | 0.24 | 0.24 | 83 | 1009.7 |
| 20260509175825 | 59 | 180 | 0.9 | 5.2 | 0.00 | 0.24 | 0.24 | 86 | 1009.6 |
| 20260509175322 | 58 | 188 | 1.7 | 4.3 | 0.00 | 0.24 | 0.24 | 86 | 1009.4 |
| 20260509174818 | 59 | 183 | 1.7 | 4.3 | 0.00 | 0.24 | 0.24 | 88 | 1009.7 |
| 20260509174313 | 58 | 131 | 1.7 | 3.5 | 0.00 | 0.24 | 0.24 | 88 | 1009.5 |
| 20260509173810 | 58 | 180 | 1.7 | 4.3 | 0.00 | 0.24 | 0.24 | 87 | 1009.5 |
| 20260509173305 | 59 | 120 | 1.7 | 4.3 | 0.00 | 0.24 | 0.24 | 90 | 1009.5 |
| 20260509172801 | 58 | 278 | 0.9 | 6.1 | 0.00 | 0.24 | 0.24 | 90 | 1009.6 |
| 20260509172259 | 58 | 142 | 3.5 | 5.2 | 0.00 | 0.24 | 0.24 | 95 | 1009.8 |
| 20260509171754 | 57 | 234 | 2.6 | 3.5 | 0.00 | 0.24 | 0.24 | 97 | 1009.4 |
| 20260509171250 | 56 | 156 | 0.0 | 4.3 | 0.00 | 0.24 | 0.24 | 99 | 1009.7 |
| 20260509170747 | 57 | 200 | 0.0 | 3.5 | 0.00 | 0.24 | 0.24 | 99 | 1009.7 |
| 20260509170243 | 56 | 196 | 2.6 | 4.3 | 0.00 | 0.24 | 0.24 | 99 | 1009.4 |
| 20260509165742 | 54 | 140 | 2.6 | 4.3 | 0.00 | 0.24 | 0.24 | 99 | 1009.7 |
| 20260509165237 | 54 | 185 | 0.9 | 3.5 | 0.00 | 0.24 | 0.24 | 99 | 1009.5 |
| 20260509164733 | 53 | 155 | 2.6 | 2.6 | 0.00 | 0.24 | 0.24 | 99 | 1009.8 |
| 20260509164229 | 53 | 198 | 0.0 | 2.6 | 0.00 | 0.24 | 0.24 | 99 | 1009.7 |
| 20260509163726 | 53 | 180 | 0.0 | 2.6 | 0.00 | 0.24 | 0.24 | 99 | 1009.9 |
| 20260509163223 | 53 | 160 | 0.9 | 2.6 | 0.00 | 0.24 | 0.24 | 99 | 1010.0 |
| 20260509162720 | 53 | 169 | 0.9 | 1.7 | 0.00 | 0.24 | 0.24 | 99 | 1010.0 |
| 20260509162215 | 53 | 191 | 2.6 | 3.5 | 0.00 | 0.24 | 0.24 | 99 | 1009.6 |
| 20260509161711 | 53 | 197 | 2.6 | 2.6 | 0.00 | 0.24 | 0.24 | 99 | 1009.6 |
| 20260509161208 | 52 | 196 | 0.0 | 2.6 | 0.00 | 0.24 | 0.24 | 99 | 1009.9 |
| 20260509160703 | 53 | 186 | 0.9 | 3.5 | 0.00 | 0.24 | 0.24 | 99 | 1009.9 |
| 20260509160159 | 53 | 185 | 1.7 | 2.6 | 0.00 | 0.24 | 0.24 | 99 | 1009.9 |
| 20260509155655 | 53 | 203 | 0.0 | 2.6 | 0.00 | 0.24 | 0.24 | 99 | 1009.7 |
| 20260509155151 | 52 | 196 | 2.6 | 3.5 | 0.00 | 0.24 | 0.24 | 99 | 1009.8 |
| 20260509154647 | 52 | 195 | 1.7 | 2.6 | 0.00 | 0.24 | 0.24 | 99 | 1009.5 |
| 20260509154145 | 52 | 174 | 0.9 | 3.5 | 0.00 | 0.24 | 0.24 | 99 | 1009.7 |
| 20260509153641 | 51 | 198 | 0.9 | 3.5 | 0.00 | 0.24 | 0.24 | 99 | 1009.9 |
| 20260509153138 | 51 | 163 | 1.7 | 2.6 | 0.00 | 0.24 | 0.24 | 99 | 1009.9 |
| 20260509152634 | 51 | 193 | 2.6 | 3.5 | 0.00 | 0.24 | 0.24 | 99 | 1009.9 |
| 20260509152131 | 51 | 160 | 0.9 | 3.5 | 0.00 | 0.24 | 0.24 | 99 | 1010.2 |
| 20260509151627 | 52 | 154 | 2.6 | 3.5 | 0.00 | 0.24 | 0.24 | 99 | 1010.3 |
| 20260509151125 | 52 | 175 | 0.9 | 2.6 | 0.02 | 0.24 | 0.24 | 99 | 1010.0 |
| 20260509150623 | 52 | 185 | 0.9 | 2.6 | 0.02 | 0.24 | 0.24 | 99 | 1009.9 |
| 20260509150121 | 51 | 187 | 1.7 | 2.6 | 0.00 | 0.23 | 0.23 | 99 | 1010.0 |
| 20260509145616 | 51 | 200 | 2.6 | 3.5 | 0.00 | 0.23 | 0.23 | 99 | 1010.5 |
| 20260509145113 | 51 | 189 | 1.7 | 2.6 | 0.00 | 0.23 | 0.23 | 99 | 1010.5 |
| 20260509144610 | 51 | 192 | 1.7 | 3.5 | 0.00 | 0.23 | 0.23 | 99 | 1010.2 |
| 20260509144107 | 51 | 187 | 1.7 | 3.5 | 0.00 | 0.23 | 0.23 | 99 | 1010.5 |
| 20260509143604 | 51 | 198 | 1.7 | 3.5 | 0.00 | 0.23 | 0.23 | 99 | 1010.3 |
| 20260509143102 | 51 | 144 | 0.0 | 2.6 | 0.00 | 0.23 | 0.23 | 99 | 1010.1 |
| 20260509142601 | 51 | 154 | 0.0 | 2.6 | 0.00 | 0.23 | 0.23 | 99 | 1010.1 |
| 20260509142058 | 51 | 180 | 1.7 | 2.6 | 0.00 | 0.23 | 0.23 | 99 | 1010.2 |
| 20260509141554 | 51 | 184 | 1.7 | 2.6 | 0.00 | 0.23 | 0.23 | 99 | 1010.2 |
| 20260509141051 | 51 | 201 | 2.6 | 2.6 | 0.02 | 0.23 | 0.23 | 99 | 1010.0 |
| 20260509140548 | 50 | 180 | 0.9 | 1.7 | 0.02 | 0.23 | 0.23 | 99 | 1010.5 |
| 20260509140046 | 50 | 161 | 1.7 | 2.6 | 0.02 | 0.23 | 0.23 | 99 | 1010.7 |
| 20260509135543 | 50 | 205 | 2.6 | 2.6 | 0.02 | 0.22 | 0.22 | 99 | 1010.3 |
| 20260509135041 | 50 | 188 | 0.0 | 2.6 | 0.02 | 0.22 | 0.22 | 99 | 1010.3 |
| 20260509134537 | 50 | 184 | 1.7 | 2.6 | 0.02 | 0.22 | 0.22 | 99 | 1010.1 |
| 20260509134035 | 50 | 188 | 2.6 | 2.6 | 0.02 | 0.22 | 0.22 | 99 | 1010.2 |
| 20260509133532 | 50 | 188 | 2.6 | 2.6 | 0.02 | 0.21 | 0.21 | 99 | 1010.5 |
| 20260509133029 | 50 | 196 | 2.6 | 2.6 | 0.07 | 0.21 | 0.21 | 99 | 1010.6 |
| 20260509132528 | 50 | 198 | 0.9 | 2.6 | 0.05 | 0.20 | 0.20 | 99 | 1010.6 |
| 20260509132026 | 50 | 187 | 0.9 | 2.6 | 0.05 | 0.20 | 0.20 | 99 | 1010.6 |
| 20260509131521 | 50 | 198 | 1.7 | 2.6 | 0.02 | 0.20 | 0.20 | 99 | 1010.3 |
| 20260509131018 | 50 | 184 | 1.7 | 2.6 | 0.00 | 0.19 | 0.19 | 99 | 1010.3 |
| 20260509130514 | 50 | 199 | 1.7 | 2.6 | 0.00 | 0.19 | 0.19 | 99 | 1010.3 |
| 20260509130011 | 50 | 200 | 2.6 | 2.6 | 0.02 | 0.19 | 0.19 | 99 | 1010.3 |
| 20260509125508 | 50 | 187 | 0.9 | 2.6 | 0.05 | 0.19 | 0.19 | 99 | 1010.2 |
| 20260509125004 | 50 | 176 | 1.7 | 2.6 | 0.05 | 0.19 | 0.19 | 99 | 1010.2 |
| 20260509124501 | 49 | 195 | 0.0 | 2.6 | 0.02 | 0.18 | 0.18 | 99 | 1010.6 |
| 20260509123958 | 49 | 139 | 0.0 | 3.5 | 0.02 | 0.18 | 0.18 | 99 | 1010.6 |
| 20260509123455 | 49 | 184 | 1.7 | 1.7 | 0.02 | 0.18 | 0.18 | 99 | 1010.5 |
| 20260509122950 | 49 | 193 | 2.6 | 3.5 | 0.02 | 0.18 | 0.18 | 99 | 1010.6 |
| 20260509122448 | 49 | 141 | 1.7 | 2.6 | 0.05 | 0.18 | 0.18 | 99 | 1010.6 |
| 20260509121945 | 49 | 191 | 1.7 | 4.3 | 0.05 | 0.17 | 0.17 | 99 | 1010.8 |
| 20260509121442 | 49 | 154 | 2.6 | 2.6 | 0.05 | 0.17 | 0.17 | 99 | 1010.8 |
| 20260509120940 | 49 | 197 | 2.6 | 4.3 | 0.05 | 0.17 | 0.17 | 99 | 1010.9 |
| 20260509120438 | 49 | 154 | 2.6 | 4.3 | 0.05 | 0.16 | 0.16 | 99 | 1010.9 |
| 20260509115935 | 49 | 154 | 0.9 | 2.6 | 0.05 | 0.16 | 0.16 | 99 | 1010.8 |
| 20260509115432 | 49 | 195 | 0.0 | 3.5 | 0.05 | 0.15 | 0.15 | 99 | 1010.8 |
| 20260509114929 | 49 | 201 | 1.7 | 2.6 | 0.02 | 0.15 | 0.15 | 99 | 1010.6 |
| 20260509114428 | 49 | 166 | 0.9 | 3.5 | 0.00 | 0.15 | 0.15 | 99 | 1010.5 |
| 20260509113927 | 49 | 195 | 2.6 | 3.5 | 0.02 | 0.15 | 0.15 | 99 | 1010.8 |
| 20260509113424 | 49 | 187 | 0.0 | 3.5 | 0.00 | 0.14 | 0.14 | 99 | 1010.8 |
| 20260509112921 | 49 | 186 | 2.6 | 2.6 | 0.02 | 0.14 | 0.14 | 99 | 1010.8 |
| 20260509112418 | 49 | 198 | 0.9 | 1.7 | 0.00 | 0.14 | 0.14 | 98 | 1010.9 |
| 20260509111915 | 49 | 203 | 0.9 | 1.7 | 0.02 | 0.14 | 0.14 | 98 | 1010.7 |
| 20260509111412 | 49 | 259 | 0.0 | 3.5 | 0.02 | 0.14 | 0.14 | 98 | 1010.5 |
| 20260509110909 | 49 | 194 | 0.0 | 4.3 | 0.00 | 0.13 | 0.13 | 98 | 1010.5 |
| 20260509110405 | 49 | 194 | 0.0 | 2.6 | 0.02 | 0.13 | 0.13 | 98 | 1010.5 |
| 20260509105904 | 49 | 238 | 2.6 | 4.3 | 0.02 | 0.13 | 0.13 | 98 | 1010.3 |
| 20260509105402 | 48 | 203 | 0.0 | 2.6 | 0.00 | 0.13 | 0.13 | 98 | 1010.3 |
| 20260509104858 | 48 | 212 | 0.0 | 4.3 | 0.02 | 0.13 | 0.13 | 98 | 1010.3 |
| 20260509104355 | 48 | 192 | 0.9 | 3.5 | 0.05 | 0.13 | 0.13 | 98 | 1010.1 |
| 20260509103853 | 49 | 194 | 1.7 | 3.5 | 0.05 | 0.13 | 0.13 | 98 | 1010.3 |
| 20260509103350 | 49 | 180 | 0.0 | 2.6 | 0.05 | 0.12 | 0.12 | 97 | 1010.2 |
| 20260509102849 | 49 | 152 | 1.7 | 1.7 | 0.02 | 0.11 | 0.11 | 97 | 1010.3 |
| 20260509102345 | 49 | 180 | 0.9 | 3.5 | 0.05 | 0.11 | 0.11 | 96 | 1010.3 |
| 20260509101841 | 49 | 237 | 4.3 | 6.1 | 0.05 | 0.11 | 0.11 | 96 | 1010.3 |
| 20260509101337 | 49 | 233 | 1.7 | 2.6 | 0.02 | 0.10 | 0.10 | 96 | 1010.5 |
| 20260509100835 | 49 | 188 | 0.0 | 1.7 | 0.02 | 0.10 | 0.10 | 95 | 1010.3 |
| 20260509100332 | 49 | 209 | 0.0 | 2.6 | 0.00 | 0.10 | 0.10 | 95 | 1010.6 |
| 20260509095829 | 49 | 199 | 1.7 | 7.0 | 0.02 | 0.10 | 0.10 | 95 | 1010.3 |
| 20260509095326 | 49 | 240 | 2.6 | 3.5 | 0.00 | 0.09 | 0.09 | 96 | 1010.5 |
| 20260509094823 | 49 | 262 | 0.0 | 2.6 | 0.02 | 0.09 | 0.09 | 96 | 1010.2 |
| 20260509094320 | 49 | 201 | 3.5 | 4.3 | 0.02 | 0.09 | 0.09 | 96 | 1010.3 |
| 20260509093818 | 49 | 209 | 0.9 | 4.3 | 0.05 | 0.09 | 0.09 | 97 | 1010.6 |
| 20260509093315 | 49 | 212 | 0.0 | 2.6 | 0.05 | 0.09 | 0.09 | 96 | 1010.5 |
| 20260509092813 | 49 | 240 | 0.0 | 2.6 | 0.02 | 0.08 | 0.08 | 96 | 1010.9 |
| 20260509092311 | 49 | 205 | 3.5 | 4.3 | 0.02 | 0.08 | 0.08 | 96 | 1010.6 |
| 20260509091809 | 49 | 308 | 3.5 | 6.1 | 0.05 | 0.08 | 0.08 | 96 | 1010.7 |
| 20260509091305 | 49 | 130 | 0.0 | 4.3 | 0.02 | 0.07 | 0.07 | 96 | 1011.0 |
| 20260509090803 | 49 | 267 | 2.6 | 4.3 | 0.02 | 0.07 | 0.07 | 96 | 1011.1 |
| 20260509090259 | 49 | 157 | 0.0 | 1.7 | 0.05 | 0.07 | 0.07 | 96 | 1010.9 |
| 20260509085757 | 49 | 194 | 1.7 | 7.0 | 0.05 | 0.07 | 0.07 | 96 | 1011.1 |
| 20260509085254 | 49 | 190 | 4.3 | 4.3 | 0.05 | 0.06 | 0.06 | 95 | 1011.2 |
| 20260509084750 | 49 | 166 | 1.7 | 3.5 | 0.02 | 0.06 | 0.06 | 95 | 1011.0 |
| 20260509084247 | 49 | 129 | 0.0 | 1.7 | 0.02 | 0.06 | 0.06 | 95 | 1010.9 |
| 20260509083745 | 50 | 302 | 2.6 | 5.2 | 0.09 | 0.05 | 0.05 | 94 | 1010.8 |
| 20260509083242 | 50 | 216 | 0.0 | 3.5 | 0.14 | 0.05 | 0.05 | 93 | 1011.0 |
| 20260509082738 | 50 | 254 | 1.7 | 3.5 | 0.07 | 0.04 | 0.04 | 92 | 1010.8 |
| 20260509082235 | 50 | 77 | 0.0 | 12.2 | 0.09 | 0.03 | 0.03 | 90 | 1010.9 |
| 20260509081732 | 51 | 3 | 2.6 | 8.7 | 0.12 | 0.02 | 0.02 | 88 | 1011.1 |
| 20260509081230 | 52 | 184 | 1.7 | 4.3 | 0.07 | 0.01 | 0.01 | 84 | 1011.0 |
| 20260509080728 | 53 | 0 | 2.6 | 6.1 | 0.00 | 0.00 | 0.00 | 77 | 1011.0 |
| 20260509080225 | 53 | 186 | 3.5 | 5.2 | 0.00 | 0.00 | 0.00 | 74 | 1011.0 |
| 20260509075723 | 54 | 195 | 3.5 | 6.1 | 0.00 | 0.00 | 0.00 | 72 | 1010.8 |
| 20260509075220 | 54 | 228 | 1.7 | 9.6 | 0.00 | 0.00 | 0.00 | 70 | 1010.7 |
| 20260509074717 | 55 | 277 | 0.0 | 5.2 | 0.00 | 0.00 | 0.00 | 65 | 1010.7 |
| 20260509074215 | 54 | 234 | 0.9 | 3.5 | 0.00 | 0.00 | 0.00 | 65 | 1010.5 |
| 20260509073711 | 54 | 175 | 0.9 | 2.6 | 0.00 | 0.00 | 0.00 | 66 | 1010.2 |
| 20260509073207 | 54 | 161 | 1.7 | 2.6 | 0.00 | 0.00 | 0.00 | 66 | 1010.2 |
| 20260509072704 | 55 | 220 | 1.7 | 3.5 | 0.00 | 0.00 | 0.00 | 66 | 1010.0 |
| 20260509072201 | 55 | 191 | 2.6 | 2.6 | 0.00 | 0.00 | 0.00 | 64 | 1009.8 |
| 20260509071657 | 55 | 180 | 0.0 | 3.5 | 0.00 | 0.00 | 0.00 | 65 | 1010.0 |
| 20260509071155 | 55 | 188 | 0.0 | 5.2 | 0.00 | 0.00 | 0.00 | 64 | 1010.0 |
| 20260509070651 | 54 | 183 | 2.6 | 2.6 | 0.00 | 0.00 | 0.00 | 64 | 1009.8 |
| 20260509070148 | 54 | 209 | 2.6 | 3.5 | 0.00 | 0.00 | 0.00 | 66 | 1009.6 |
| 20260509065644 | 55 | 194 | 3.5 | 4.3 | 0.00 | 0.00 | 0.00 | 64 | 1009.3 |
| 20260509065140 | 54 | 188 | 3.5 | 3.5 | 0.00 | 0.00 | 0.00 | 67 | 1009.4 |
| 20260509064637 | 55 | 166 | 0.9 | 4.3 | 0.00 | 0.00 | 0.00 | 64 | 1009.6 |
| 20260509064135 | 55 | 117 | 1.7 | 3.5 | 0.00 | 0.00 | 0.00 | 62 | 1009.5 |
| 20260509063632 | 55 | 180 | 2.6 | 2.6 | 0.00 | 0.00 | 0.00 | 63 | 1009.6 |
| 20260509063128 | 55 | 184 | 2.6 | 4.3 | 0.00 | 0.00 | 0.00 | 62 | 1009.7 |
| 20260509062626 | 54 | 199 | 1.7 | 3.5 | 0.00 | 0.00 | 0.00 | 64 | 1009.6 |
| 20260509062122 | 54 | 180 | 2.6 | 4.3 | 0.00 | 0.00 | 0.00 | 66 | 1009.7 |